Flag for Australia

Past Weather in 33°16'59.8"S, 149°06'00.0"E, Australia — Yesterday and Last 2 Weeks

Currently: 42 °F. Quite cool. (Weather station: Bathurst Airport Aws, Australia). See more current weather

Past Weather in 33°16'59.8"S, 149°06'00.0"E — Graph

°F

33°16'59.8"S, 149°06'00.0"E Temperature Yesterday

Maximum temperature yesterday: 49 °F (at 12:00 pm)
Minimum temperature yesterday: 41 °F (at 12:00 am)
Average temperature yesterday: 44 °F

High & Low Weather Summary for the Past Weeks

 TemperatureHumidityPressure
High56 °F (Jul 7, 11:00 am)100% (Jul 4, 1:00 am)30.70 "Hg (Jul 4, 1:00 am)
Low34 °F (Jul 12, 8:00 am)46% (Jul 4, 1:00 pm)29.65 "Hg (Jul 16, 7:00 am)
Average45 °F89%30.16 "Hg
* Reported Jul 3 7:00 pm — Jul 18 7:00 pm, 33°16'59.8"S, 149°06'00.0"E. Weather by CustomWeather, © 2024

Note: Actual official high and low records may vary slightly from our data, if they occured in-between our weather recording intervals... More about our weather records

33°16'59.8"S, 149°06'00.0"E Weather History for the Previous 24 Hours

Scroll right to see more
 ConditionsComfort  
Time TempWeatherWind HumidityBarometerVisibility
7:00 pm
Thu, Jul 18
42 °FQuite cool.10 mph81%30.03 "HgN/A
6:00 pm42 °FOvercast.13 mph78%30.01 "HgN/A
5:00 pm43 °FQuite cool.16 mph72%30.01 "HgN/A
4:00 pm44 °FQuite cool.14 mph73%29.98 "HgN/A
3:00 pm44 °FOvercast.13 mph78%29.97 "HgN/A
2:00 pm46 °FCool.17 mph72%29.97 "HgN/A
1:00 pm47 °FCool.13 mph73%29.96 "HgN/A
12:00 pm48 °FOvercast.16 mph76%29.98 "HgN/A
11:00 am48 °FCool.12 mph70%30.00 "HgN/A
10:00 am47 °FCool.10 mph74%30.00 "HgN/A
9:00 am45 °FPassing clouds.8 mph87%29.98 "HgN/A
8:00 am43 °FQuite cool.8 mph100%29.97 "HgN/A
7:00 am42 °FQuite cool.6 mph100%29.97 "HgN/A
6:00 am42 °FOvercast.6 mph100%29.95 "HgN/A
5:00 am43 °FQuite cool.1 mph100%29.94 "HgN/A
4:00 am43 °FQuite cool.5 mph100%29.93 "HgN/A
3:00 am43 °FLow clouds.8 mph100%29.93 "HgN/A
2:00 am43 °FQuite cool.5 mph100%29.93 "HgN/A
1:00 am43 °FQuite cool.5 mph100%29.93 "HgN/A
12:00 am43 °FLow clouds.7 mph100%29.93 "HgN/A
11:00 pm
Wed, Jul 17
43 °FQuite cool.6 mph100%29.93 "HgN/A
10:00 pm43 °FQuite cool.3 mph100%29.93 "HgN/A
9:00 pm43 °FOvercast.1 mph99%29.93 "HgN/A
8:00 pm43 °FQuite cool.6 mph99%29.90 "HgN/A
Weather by CustomWeather, © 2024

See weather overview